This is the latest recevied weather packets stored in our database for station/object HOTSPR-3. If no packets are shown the sender has not sent any weather packets the latest 10 day(s).
| Time | Temp. | Humidity | Pressure | Rain* | Wind** | Luminosity | Snow |
|---|---|---|---|---|---|---|---|
| 1777457889 | 16.67° C | 100% | 1010.5 hPa | 6.1 mm | - | - | - |
| 1777457590 | 16.67° C | 100% | 1010.4 hPa | 6.1 mm | - | - | - |
| 1777456989 | 16.67° C | 100% | 1010.3 hPa | 6.1 mm | - | - | - |
| 1777455488 | 17.22° C | 100% | 1010.1 hPa | 6.1 mm | - | - | - |
| 1777454887 | 17.22° C | 100% | 1010.1 hPa | 6.1 mm | - | - | - |
| 1777453387 | 17.22° C | 100% | 1010.3 hPa | 6.1 mm | - | - | - |
| 1777452186 | 17.22° C | 100% | 1010 hPa | 6.1 mm | - | - | - |
| 1777450085 | 17.78° C | 100% | 1009.8 hPa | 6.1 mm | - | - | - |
| 1777449484 | 17.78° C | 100% | 1009.9 hPa | 6.1 mm | - | - | - |
| 1777448584 | 17.78° C | 100% | 1010 hPa | 6.1 mm | - | - | - |
| 1777448283 | 17.78° C | 100% | 1010.1 hPa | 6.1 mm | - | - | - |
| 1777445582 | 18.89° C | 100% | 1010.5 hPa | 6.1 mm | - | - | - |
| 1777444081 | 18.89° C | 100% | 1010.5 hPa | 6.1 mm | - | - | - |
| 1777443481 | 19.44° C | 100% | 1010.3 hPa | 6.1 mm | - | - | - |
| 1777443181 | 19.44° C | 100% | 1010.3 hPa | 6.1 mm | - | - | - |
| 1777442880 | 19.44° C | 100% | 1010.1 hPa | 6.1 mm | - | - | - |
| 1777441980 | 19.44° C | 100% | 1010 hPa | 6.1 mm | - | - | - |
| 1777441379 | 19.44° C | 100% | 1009.9 hPa | 6.1 mm | - | - | - |
| 1777440779 | 19.44° C | 100% | 1009.8 hPa | 6.1 mm | - | - | - |
| 1777440179 | 20° C | 100% | 1009.5 hPa | 6.1 mm | - | - | - |
| 1777439579 | 20° C | 100% | 1009.5 hPa | 6.1 mm | - | - | - |
| 1777439278 | 20° C | 100% | 1009.7 hPa | 6.1 mm | - | - | - |
| 1777438678 | 20° C | 100% | 1009.6 hPa | 6.1 mm | - | - | - |
| 1777438378 | 20° C | 100% | 1009.7 hPa | 6.1 mm | - | - | - |
| 1777438078 | 20° C | 100% | 1009.7 hPa | 6.1 mm | - | - | - |
* Rain since midnight (hover to see other rain measurements)
** Current wind speed in m/s (hover to see current wind gust speed)